Regional Weather Roundup
Issued by NWS

Home | Current Version | Previous Version | Text Only | Print | Product List | Glossary Off
Versions: 1 2 3 4 5 6 7 8 9 10 11 12 13 14 15 16 17 18 19 20 21 22 23 24 25 26 27 28 29 30 31 32 33 34 35 36 37 38 39 40 41 42 43 44 45 46 47 48 49 50

000
ASUS43 KTOP 050708
RWRKS

WEATHER ROUNDUP FOR KANSAS
NATIONAL WEATHER SERVICE GOODLAND KS
200 AM CDT WED AUG 05 2015

NOTE:  "FAIR" INDICATES FEW OR NO CLOUDS BELOW 12,000 FEET WITH NO
SIGNIFICANT WEATHER AND/OR OBSTRUCTIONS TO VISIBILITY.

KSZ001>006-013>018-027>032-041>047-050800-
NORTHWEST KANSAS

CITY           SKY/WX    TMP DP  RH WIND       PRES   REMARKS
GOODLAND       CLEAR     61  60  97 N6        30.06R
HAYS           MOCLDY    72  63  73 S5        29.93F
HILL CITY      CLOUDY    66  64  93 N6        29.98F
RUSSELL        MOCLDY    73  69  87 S9        29.91F
$$

KSZ061>065-074>080-084>089-050800-
SOUTHWEST KANSAS

CITY           SKY/WX    TMP DP  RH WIND       PRES   REMARKS
DODGE CITY     CLEAR     70  68  93 S7        29.97S FOG
ELKHART          N/A     70  64  81 S6          N/A
GARDEN CITY    CLEAR     69  65  86 E7        29.98S
GREAT BEND     PTCLDY    72  66  83 SE10      29.93F
LIBERAL        CLEAR     72  64  78 S5          N/A
PRATT          CLEAR     72  68  88 SE6       29.96S
$$

KSZ066>073-081>083-090>101-050800-
SOUTHEAST KANSAS

CITY           SKY/WX    TMP DP  RH WIND       PRES   REMARKS
CHANUTE        MOCLDY    71  70  96 E5        29.96S FOG
COFFEYVILLE    CLOUDY    72  71  97 CALM      29.94S
HUTCHINSON     MOCLDY    74  70  87 SE9       29.94F
MEDICINE LODGE   N/A     74  71  91 E9        29.92F
NEWTON         PTCLDY    72  64  78 SE10      29.97F
PARSONS        MOCLDY    72  71  97 CALM      29.96S
WICHITA INTL   MOCLDY    73  69  87 SE6       29.94F
WICHITA JABRA  CLEAR     72  69  90 SE9       29.94F
WICHITA MCCONL CLEAR     72  69  88 E8        29.94F
$$

KSZ007>012-019>026-033>040-048>060-102>105-050800-
NORTHEAST KANSAS

CITY           SKY/WX    TMP DP  RH WIND       PRES   REMARKS
CONCORDIA      LGT RAIN  67  66  97 N7        29.96S
EMPORIA        MOCLDY    70  67  90 SE6       29.96S
LAWRENCE       PTCLDY    70  69  97 SE5       29.97S FOG
MANHATTAN      CLOUDY    71  68  90 CALM      29.96R
MARYSVILLE     CLOUDY    70  68  94 S5        29.97R
OLATHE IND     CLOUDY    71  69  93 E7        29.99F
OLATHE EXE     CLOUDY    70  69  97 E5        29.98F
SALINA         CLOUDY    75  70  84 SE10      29.92F
TOPEKA BILLARD MOCLDY    70  68  93 SE3       29.97R
TOPEKA FORBES  MOCLDY    70  67  90 SE5       29.97R
$$


USA.gov is the U.S. government's official web portal to all federal, state and local government web resources and services.